Location: *
(58.4167°N, 22.5000°E)
Time: 10:51:25
(UTC+00:00)

Cosmos 1470 - Pass Details

Date: 22 September 2019
Orbit: 522 x 542 km, 82.5° (Epoch: 15 October)

Event Time Altitude Azimuth Distance (km) Brightness Sun altitude
Exits shadow 19:01:11 41° 76° (ENE) 798 3.3 -19.3°
Drops below altitude 10° 19:04:33 10° 24° (NNE) 1,819 5.6 -19.7°
Sets 19:06:47 0° 17° (NNE) 2,719 6.6 -19.9°
